DW6368 Weather Reports


Display with metric or nautical units.
time (UTC)temp
F
wind
direction
speed
MPH
gust
MPH
rain 1hr
in
rain 24hr
in
rain mn
in
humidity
%
barometer
mb
20260902230303 83 201 2.0 6.0 0.00 0.00 0.00 57 1012.7
20260902225306 83 219 2.0 10.0 0.00 0.00 0.00 58 1013.0
20260902224302 83 240 3.0 9.0 0.00 0.00 0.00 59 1013.0
20260902222305 82 221 3.0 11.0 0.00 0.00 0.00 61 1013.3
20260902221303 81 221 3.0 10.0 0.00 0.00 0.00 61 1013.4
20260902220302 81 244 3.0 10.0 0.00 0.00 0.00 59 1013.5
20260902215324 81 237 4.0 9.0 0.00 0.00 0.00 63 1013.6
20260902214312 82 224 3.0 10.0 0.00 0.00 0.00 63 1013.9
20260902213303 82 251 3.0 9.0 0.00 0.00 0.00 62 1014.1
20260902212305 82 240 4.0 10.0 0.00 0.00 0.00 62 1014.2
20260902211302 82 215 3.0 10.0 0.00 0.00 0.00 60 1014.2
20260902210324 82 228 3.0 6.0 0.00 0.00 0.00 61 1014.3
20260902205306 82 197 2.0 7.0 0.00 0.00 0.00 65 1014.4
20260902203311 82 216 2.0 7.0 0.00 0.00 0.00 65 1014.2
20260902202306 82 241 3.0 7.0 0.00 0.00 0.00 64 1014.2
20260902201303 82 212 2.0 7.0 0.00 0.00 0.00 65 1014.3
20260902200303 82 202 2.0 9.0 0.00 0.00 0.00 65 1014.5
20260902195324 82 187 1.0 4.0 0.00 0.00 0.00 65 1014.6
20260902194324 82 207 2.0 5.0 0.00 0.00 0.00 65 1014.6
20260902193303 81 245 2.0 6.0 0.00 0.00 0.00 65 1014.7
20260902192306 81 211 2.0 5.0 0.00 0.00 0.00 65 1015.0
20260902191324 81 174 1.0 5.0 0.00 0.00 0.00 65 1015.1
20260902190302 80 107 1.0 4.0 0.00 0.00 0.00 64 1015.1
20260902185306 80 241 2.0 5.0 0.00 0.00 0.00 66 1015.2
20260902184303 79 199 1.0 4.0 0.00 0.00 0.00 66 1015.2
20260902183311 80 177 1.0 6.0 0.00 0.00 0.00 68 1015.2
20260902181303 79 207 1.0 4.0 0.00 0.00 0.00 69 1015.2
20260902180302 78 125 1.0 4.0 0.00 0.00 0.00 69 1015.4
20260902175324 78 254 1.0 4.0 0.00 0.00 0.00 70 1015.5
20260902173324 77 227 2.0 4.0 0.00 0.00 0.00 71 1015.3
20260902172307 77 189 1.0 5.0 0.00 0.00 0.00 72 1015.2
20260902171303 76 264 2.0 5.0 0.00 0.00 0.00 72 1015.3
20260902170321 76 213 2.0 6.0 0.00 0.00 0.00 74 1015.2
20260902164303 75 183 1.0 4.0 0.00 0.00 0.00 75 1015.2
20260902163303 75 256 2.0 5.0 0.00 0.00 0.00 75 1015.2
20260902161303 74 291 2.0 5.0 0.00 0.00 0.00 75 1015.3
20260902160324 73 227 1.0 3.0 0.00 0.00 0.00 78 1015.1
20260902155323 73 244 1.0 3.0 0.00 0.00 0.00 79 1015.0
20260902154324 73 61 1.0 3.0 0.00 0.00 0.00 78 1015.1
20260902153310 71 107 1.0 3.0 0.00 0.00 0.00 81 1015.2
20260902152307 69 149 1.0 2.0 0.00 0.00 0.00 87 1015.2
20260902151303 68 78 1.0 2.0 0.00 0.00 0.00 90 1015.1
20260902150303 66 149 1.0 2.0 0.00 0.00 0.00 95 1015.1
20260902144303 64 86 0.0 2.0 0.00 0.00 0.00 100 1015.1
20260902143303 62 134 0.0 1.0 0.00 0.00 0.00 100 1015.0
20260902142311 60 20 0.0 1.0 0.00 0.00 0.00 99 1015.0
20260902140303 59 132 0.0 1.0 0.00 0.00 0.00 98 1014.7
20260902135324 59 28 0.0 1.0 0.00 0.00 0.00 98 1014.5
20260902134303 59 56 0.0 1.0 0.00 0.00 0.00 97 1014.4
20260902133302 59 33 0.0 1.0 0.00 0.00 0.00 97 1014.4
20260902132306 59 9 0.0 1.0 0.00 0.00 0.00 97 1014.3
20260902131324 59 9 0.0 1.0 0.00 0.00 0.00 97 1014.2
20260902130303 59 51 0.0 1.0 0.00 0.00 0.00 96 1014.2
20260902125305 59 9 0.0 1.0 0.00 0.00 0.00 96 1014.2
20260902124303 59 291 0.0 1.0 0.00 0.00 0.00 96 1014.0
20260902123324 59 31 0.0 1.0 0.00 0.00 0.00 96 1014.1
20260902122305 59 51 0.0 2.0 0.00 0.00 0.00 96 1014.2
20260902121303 59 343 0.0 1.0 0.00 0.00 0.00 96 1014.3
20260902120302 59 18 0.0 1.0 0.00 0.00 0.00 96 1014.2
20260902115306 60 309 0.0 1.0 0.00 0.00 0.00 95 1014.3
20260902114303 60 17 0.0 1.0 0.00 0.00 0.00 95 1014.3
20260902113325 60 293 0.0 1.0 0.00 0.00 0.00 95 1014.4
20260902112305 60 9 0.0 1.0 0.00 0.00 0.00 95 1014.4
20260902111302 60 29 0.0 1.0 0.00 0.00 0.00 95 1014.4
20260902110324 60 8 0.0 1.0 0.00 0.00 0.00 95 1014.4
20260902105306 60 9 0.0 1.0 0.00 0.00 0.00 95 1014.5
20260902104303 61 9 0.0 0.0 0.00 0.00 0.00 95 1014.4
20260902103303 61 9 0.0 1.0 0.00 0.00 0.00 94 1014.4
20260902102307 61 93 0.0 1.0 0.00 0.00 0.00 95 1014.5
20260902101302 61 320 0.0 1.0 0.00 0.00 0.00 95 1014.5
20260902100302 61 16 0.0 1.0 0.00 0.00 0.00 95 1014.5
20260902095324 61 9 0.0 0.0 0.00 0.00 0.00 94 1014.6
20260902094303 61 9 0.0 1.0 0.00 0.00 0.00 94 1014.6
20260902093303 61 9 0.0 1.0 0.00 0.00 0.00 93 1014.7
20260902092305 61 51 0.0 0.0 0.00 0.00 0.00 93 1014.7
20260902091303 61 51 0.0 1.0 0.00 0.00 0.00 93 1014.8
20260902090303 62 51 0.0 1.0 0.00 0.00 0.00 93 1014.8
20260902085306 62 220 0.0 1.0 0.00 0.00 0.00 93 1014.8
20260902084302 62 51 0.0 0.0 0.00 0.00 0.00 92 1014.7
20260902083303 62 9 0.0 1.0 0.00 0.00 0.00 92 1014.7
20260902082308 62 9 0.0 1.0 0.00 0.00 0.00 92 1014.7
20260902081303 62 31 0.0 1.0 0.00 0.00 0.00 92 1014.8
20260902080302 62 343 0.0 1.0 0.00 0.00 0.00 92 1014.8
20260902075324 62 9 0.0 1.0 0.00 0.00 0.00 91 1014.9
20260902074303 63 51 0.0 1.0 0.00 0.00 0.00 91 1014.7
20260902073303 63 265 0.0 0.0 0.00 0.00 0.00 91 1014.6
20260902072309 63 51 0.0 0.0 0.00 0.00 0.00 90 1014.5
20260902071302 64 265 0.0 1.0 0.00 0.00 0.00 89 1014.3
20260902070303 64 51 0.0 1.0 0.00 0.00 0.00 89 1014.3
20260902065323 64 9 0.0 1.0 0.00 0.00 0.00 88 1014.3
20260902064324 64 51 0.0 1.0 0.00 0.00 0.00 88 1014.3
20260902063303 65 68 0.0 1.0 0.00 0.00 0.00 87 1014.4
20260902062306 65 51 0.0 1.0 0.00 0.00 0.00 86 1014.3
20260902061324 65 51 0.0 0.0 0.00 0.00 0.00 85 1014.2
20260902060303 66 309 0.0 1.0 0.00 0.00 0.00 84 1014.2
20260902055306 66 51 0.0 1.0 0.00 0.00 0.00 83 1014.2
20260902054303 67 51 0.0 1.0 0.00 0.00 0.00 82 1014.1
20260902053302 68 52 0.0 1.0 0.00 0.00 0.00 81 1014.1
20260902052306 68 309 0.0 1.0 0.00 0.00 0.00 81 1014.1
20260902051303 68 48 0.0 2.0 0.00 0.00 0.00 80 1014.2
20260902050302 68 327 1.0 3.0 0.00 0.00 0.00 80 1014.1
20260902045306 68 312 1.0 4.0 0.00 0.00 0.00 80 1014.0
20260902044303 69 316 1.0 4.0 0.00 0.00 0.00 80 1013.9
20260902043303 69 325 1.0 3.0 0.00 0.00 0.00 81 1013.6
20260902042308 69 323 1.0 3.0 0.00 0.00 0.00 81 1013.5
20260902041303 69 319 1.0 3.0 0.00 0.00 0.00 81 1013.5
20260902040303 69 303 1.0 4.0 0.00 0.00 0.00 81 1013.2
20260902035324 69 331 1.0 4.0 0.00 0.00 0.00 81 1013.0
20260902034302 70 308 2.0 6.0 0.00 0.00 0.00 81 1012.9
20260902033303 70 307 2.0 5.0 0.00 0.00 0.00 80 1012.8
20260902032305 70 312 2.0 6.0 0.00 0.00 0.00 78 1012.7
20260902031302 71 305 2.0 5.0 0.00 0.00 0.00 77 1012.6
20260902030303 71 312 3.0 6.0 0.00 0.00 0.00 76 1012.5
20260902025306 71 303 2.0 5.0 0.00 0.00 0.00 75 1012.4
20260902024303 72 298 1.0 2.0 0.00 0.00 0.00 75 1012.2
20260902023324 73 345 0.0 3.0 0.00 0.00 0.00 73 1012.1
20260902021803 74 305 2.0 4.0 0.00 0.00 0.00 71 1012.1
20260902020803 74 297 3.0 6.0 0.00 0.00 0.00 70 1012.2
20260902015305 75 294 3.0 7.0 0.00 0.00 0.00 68 1012.2
20260902014303 76 306 3.0 10.0 0.00 0.00 0.00 65 1012.2
20260902013302 77 287 4.0 9.0 0.00 0.00 0.00 65 1012.2
20260902012308 77 289 4.0 8.0 0.00 0.00 0.00 64 1012.2
20260902011303 79 293 4.0 6.0 0.00 0.00 0.00 63 1012.2
20260902010303 78 300 3.0 9.0 0.00 0.00 0.00 63 1012.3
20260902005305 79 305 4.0 9.0 0.00 0.00 0.00 61 1012.3
20260902004302 80 281 3.0 7.0 0.00 0.00 0.00 61 1012.3
20260902003302 80 296 4.0 7.0 0.00 0.00 0.00 59 1012.4
20260902002306 82 302 3.0 7.0 0.00 0.00 0.00 58 1012.2
20260902001302 83 307 1.0 9.0 0.00 0.00 0.00 57 1012.3
20260902000304 84 274 3.0 6.0 0.00 0.00 0.00 55 1012.3
20260901235307 86 270 3.0 7.0 0.00 0.00 0.00 54 1012.4
20260901234302 87 259 3.0 7.0 0.00 0.00 0.00 53 1012.4
20260901233303 87 214 2.0 8.0 0.00 0.00 0.00 52 1012.4
20260901232306 87 204 2.0 7.0 0.00 0.00 0.00 53 1012.5
20260901231302 87 217 3.0 9.0 0.00 0.00 0.00 52 1012.4